Time,TemperatureF,DewpointF,PressureIn,WindDirection,WindDirectionDegrees,WindSpeedMPH,WindSpeedGustMPH,Humidity,HourlyPrecipIn,Conditions,Clouds,dailyrainin,SoftwareType,DateUTC
2013-02-19 00:04:00,41.3,36.2,29.83,SSE,150,0.0,0.0,82,0.00,,,0.00,Wunderground v.1.15,2013-02-19 08:04:00,
2013-02-19 00:10:00,41.2,36.1,29.83,SSE,150,0.0,0.0,82,0.00,,,0.00,Wunderground v.1.15,2013-02-19 08:10:00,
2013-02-19 00:16:00,41.1,36.3,29.82,SSE,150,0.0,0.0,83,0.00,,,0.00,Wunderground v.1.15,2013-02-19 08:16:00,
2013-02-19 00:21:00,41.1,36.3,29.82,SSE,150,0.0,0.0,83,0.00,,,0.00,Wunderground v.1.15,2013-02-19 08:21:00,
2013-02-19 00:27:00,41.1,36.6,29.82,SSE,150,0.0,0.0,84,0.00,,,0.00,Wunderground v.1.15,2013-02-19 08:27:00,
2013-02-19 00:32:00,41.1,36.6,29.82,SSE,150,0.0,0.0,84,0.00,,,0.00,Wunderground v.1.15,2013-02-19 08:32:00,
2013-02-19 00:38:00,41.0,36.8,29.82,SSE,150,0.0,0.0,85,0.00,,,0.00,Wunderground v.1.15,2013-02-19 08:38:00,
2013-02-19 00:43:00,41.0,36.8,29.82,SSE,150,0.0,0.0,85,0.00,,,0.00,Wunderground v.1.15,2013-02-19 08:43:00,
2013-02-19 00:49:00,41.0,36.8,29.82,SSE,150,0.0,0.0,85,0.00,,,0.00,Wunderground v.1.15,2013-02-19 08:49:00,
2013-02-19 00:54:00,41.0,36.8,29.82,SSE,150,1.0,1.0,85,0.00,,,0.00,Wunderground v.1.15,2013-02-19 08:54:00,
2013-02-19 01:00:00,41.0,36.8,29.81,SSE,149,0.0,0.0,85,0.00,,,0.00,Wunderground v.1.15,2013-02-19 09:00:00,
2013-02-19 01:06:00,41.0,36.8,29.82,SSE,149,0.0,0.0,85,0.00,,,0.00,Wunderground v.1.15,2013-02-19 09:06:00,
2013-02-19 01:11:00,40.9,36.7,29.82,SSE,149,0.0,0.0,85,0.00,,,0.00,Wunderground v.1.15,2013-02-19 09:11:00,
2013-02-19 01:17:00,40.9,36.7,29.81,SSE,149,0.0,0.0,85,0.00,,,0.00,Wunderground v.1.15,2013-02-19 09:17:00,
2013-02-19 01:22:00,40.9,36.4,29.81,SSE,149,0.0,0.0,84,0.00,,,0.00,Wunderground v.1.15,2013-02-19 09:22:00,
2013-02-19 01:28:00,40.9,36.4,29.81,SSE,149,2.0,2.0,84,0.00,,,0.00,Wunderground v.1.15,2013-02-19 09:28:00,
2013-02-19 01:34:00,40.9,36.1,29.81,SE,129,0.0,3.0,83,0.00,,,0.00,Wunderground v.1.15,2013-02-19 09:34:00,
2013-02-19 01:39:00,40.9,36.1,29.81,East,97,1.0,2.0,83,0.00,,,0.00,Wunderground v.1.15,2013-02-19 09:39:00,
2013-02-19 01:45:00,40.9,35.8,29.81,East,96,0.0,4.0,82,0.00,,,0.00,Wunderground v.1.15,2013-02-19 09:45:00,
2013-02-19 01:50:00,40.9,35.8,29.81,East,96,2.0,2.0,82,0.00,,,0.00,Wunderground v.1.15,2013-02-19 09:50:00,
2013-02-19 01:56:00,40.9,35.8,29.81,East,95,0.0,3.0,82,0.00,,,0.00,Wunderground v.1.15,2013-02-19 09:56:00,
2013-02-19 02:01:00,40.8,35.7,29.81,East,95,0.0,1.0,82,0.00,,,0.00,Wunderground v.1.15,2013-02-19 10:01:00,
2013-02-19 02:06:00,40.8,35.7,29.81,East,95,0.0,1.0,82,0.00,,,0.00,Wunderground v.1.15,2013-02-19 10:06:00,
2013-02-19 02:11:00,40.7,35.6,29.81,East,95,0.0,0.0,82,0.00,,,0.00,Wunderground v.1.15,2013-02-19 10:11:00,
2013-02-19 02:16:00,40.7,35.9,29.81,East,95,0.0,0.0,83,0.00,,,0.00,Wunderground v.1.15,2013-02-19 10:16:00,
2013-02-19 02:21:00,40.6,35.5,29.81,East,95,1.0,1.0,82,0.00,,,0.00,Wunderground v.1.15,2013-02-19 10:21:00,
2013-02-19 02:26:00,40.5,35.4,29.81,East,95,0.0,1.0,82,0.00,,,0.00,Wunderground v.1.15,2013-02-19 10:26:00,
2013-02-19 02:31:00,40.5,35.4,29.81,East,95,0.0,0.0,82,0.00,,,0.00,Wunderground v.1.15,2013-02-19 10:31:00,
2013-02-19 02:36:00,40.4,35.3,29.81,East,95,0.0,0.0,82,0.00,,,0.00,Wunderground v.1.15,2013-02-19 10:36:00,
2013-02-19 02:41:00,40.4,35.3,29.81,East,95,0.0,0.0,82,0.00,,,0.00,Wunderground v.1.15,2013-02-19 10:41:00,
2013-02-19 02:46:00,40.3,35.2,29.80,East,95,0.0,0.0,82,0.00,,,0.00,Wunderground v.1.15,2013-02-19 10:46:00,
2013-02-19 02:51:00,40.3,35.2,29.81,East,95,0.0,0.0,82,0.00,,,0.00,Wunderground v.1.15,2013-02-19 10:51:00,
2013-02-19 02:56:00,40.2,35.1,29.80,East,95,0.0,0.0,82,0.00,,,0.00,Wunderground v.1.15,2013-02-19 10:56:00,
2013-02-19 03:01:00,40.2,35.1,29.80,East,95,0.0,0.0,82,0.00,,,0.00,Wunderground v.1.15,2013-02-19 11:01:00,
2013-02-19 03:06:00,40.2,34.8,29.81,East,95,0.0,0.0,81,0.00,,,0.00,Wunderground v.1.15,2013-02-19 11:06:00,
2013-02-19 03:11:00,40.2,34.8,29.81,East,95,0.0,0.0,81,0.00,,,0.00,Wunderground v.1.15,2013-02-19 11:11:00,
2013-02-19 03:16:00,40.2,34.8,29.80,East,94,1.0,4.0,81,0.00,,,0.00,Wunderground v.1.15,2013-02-19 11:16:00,
2013-02-19 03:21:00,40.2,35.4,29.80,East,94,1.0,2.0,83,0.00,,,0.00,Wunderground v.1.15,2013-02-19 11:21:00,
2013-02-19 03:26:00,40.1,35.7,29.80,East,91,1.0,4.0,84,0.00,,,0.00,Wunderground v.1.15,2013-02-19 11:26:00,
2013-02-19 03:31:00,40.0,35.9,29.81,East,90,2.0,2.0,85,0.00,,,0.00,Wunderground v.1.15,2013-02-19 11:31:00,
2013-02-19 03:36:00,39.8,35.7,29.81,East,84,2.0,4.0,85,0.00,,,0.00,Wunderground v.1.15,2013-02-19 11:36:00,
2013-02-19 03:41:00,39.5,35.7,29.81,East,80,2.0,4.0,86,0.00,,,0.00,Wunderground v.1.15,2013-02-19 11:41:00,
2013-02-19 03:47:00,39.3,35.5,29.81,ENE,71,2.0,6.0,86,0.00,,,0.00,Wunderground v.1.15,2013-02-19 11:47:00,
2013-02-19 03:52:00,39.2,35.4,29.81,ENE,60,1.0,5.0,86,0.00,,,0.00,Wunderground v.1.15,2013-02-19 11:52:00,
2013-02-19 03:57:00,39.1,35.3,29.81,ENE,59,4.0,5.0,86,0.00,,,0.00,Wunderground v.1.15,2013-02-19 11:57:00,
2013-02-19 04:02:00,38.9,35.1,29.81,NE,55,0.0,3.0,86,0.00,,,0.00,Wunderground v.1.15,2013-02-19 12:02:00,
2013-02-19 04:07:00,38.8,35.3,29.81,NE,53,0.0,6.0,87,0.00,,,0.00,Wunderground v.1.15,2013-02-19 12:07:00,
2013-02-19 04:12:00,38.8,35.3,29.81,NE,52,0.0,2.0,87,0.00,,,0.00,Wunderground v.1.15,2013-02-19 12:12:00,
2013-02-19 04:17:00,38.7,35.2,29.81,NE,52,0.0,4.0,87,0.00,,,0.00,Wunderground v.1.15,2013-02-19 12:17:00,
2013-02-19 04:22:00,38.7,35.2,29.81,NE,52,0.0,2.0,87,0.00,,,0.00,Wunderground v.1.15,2013-02-19 12:22:00,
2013-02-19 04:27:00,38.6,35.1,29.81,NE,52,2.0,3.0,87,0.00,,,0.00,Wunderground v.1.15,2013-02-19 12:27:00,
2013-02-19 04:32:00,38.6,35.1,29.81,NE,52,0.0,1.0,87,0.00,,,0.00,Wunderground v.1.15,2013-02-19 12:32:00,
2013-02-19 04:37:00,38.5,35.0,29.81,NE,52,0.0,3.0,87,0.00,,,0.00,Wunderground v.1.15,2013-02-19 12:37:00,
2013-02-19 04:42:00,38.6,35.4,29.81,NE,52,0.0,3.0,88,0.00,,,0.00,Wunderground v.1.15,2013-02-19 12:42:00,
2013-02-19 04:47:00,38.6,35.4,29.81,NE,52,1.0,3.0,88,0.00,,,0.00,Wunderground v.1.15,2013-02-19 12:47:00,
2013-02-19 04:52:00,38.6,35.4,29.81,NE,51,0.0,3.0,88,0.00,,,0.00,Wunderground v.1.15,2013-02-19 12:52:00,
2013-02-19 04:57:00,38.6,35.4,29.81,NE,51,1.0,3.0,88,0.00,,,0.00,Wunderground v.1.15,2013-02-19 12:57:00,
2013-02-19 05:02:00,38.7,35.5,29.81,NE,51,1.0,4.0,88,0.00,,,0.00,Wunderground v.1.15,2013-02-19 13:02:00,
2013-02-19 05:07:00,38.7,35.2,29.81,NE,49,3.0,5.0,87,0.00,,,0.00,Wunderground v.1.15,2013-02-19 13:07:00,
2013-02-19 05:12:00,38.8,35.3,29.82,NE,46,1.0,5.0,87,0.00,,,0.00,Wunderground v.1.15,2013-02-19 13:12:00,
2013-02-19 05:17:00,38.8,35.3,29.82,NE,36,3.0,5.0,87,0.00,,,0.00,Wunderground v.1.15,2013-02-19 13:17:00,
2013-02-19 05:22:00,38.8,35.6,29.82,NNE,32,2.0,5.0,88,0.00,,,0.00,Wunderground v.1.15,2013-02-19 13:22:00,
2013-02-19 05:27:00,38.8,35.6,29.82,NNE,27,3.0,5.0,88,0.00,,,0.00,Wunderground v.1.15,2013-02-19 13:27:00,
2013-02-19 05:32:00,38.8,35.6,29.82,NNE,26,2.0,4.0,88,0.00,,,0.00,Wunderground v.1.15,2013-02-19 13:32:00,
2013-02-19 05:37:00,38.7,35.5,29.82,NNE,24,1.0,5.0,88,0.00,,,0.00,Wunderground v.1.15,2013-02-19 13:37:00,
2013-02-19 05:42:00,38.7,35.5,29.82,NNE,24,1.0,5.0,88,0.00,,,0.00,Wunderground v.1.15,2013-02-19 13:42:00,
2013-02-19 05:47:00,38.6,35.4,29.82,NNE,23,4.0,5.0,88,0.00,,,0.00,Wunderground v.1.15,2013-02-19 13:47:00,
2013-02-19 05:52:00,38.6,35.4,29.83,NNE,23,1.0,3.0,88,0.00,,,0.00,Wunderground v.1.15,2013-02-19 13:52:00,
2013-02-19 05:57:00,38.6,35.4,29.83,NNE,23,0.0,4.0,88,0.00,,,0.00,Wunderground v.1.15,2013-02-19 13:57:00,
2013-02-19 06:02:00,38.7,35.5,29.83,NNE,23,2.0,5.0,88,0.00,,,0.00,Wunderground v.1.15,2013-02-19 14:02:00,
2013-02-19 06:07:00,38.7,35.5,29.83,NNE,23,3.0,5.0,88,0.00,,,0.00,Wunderground v.1.15,2013-02-19 14:07:00,
2013-02-19 06:12:00,38.8,35.6,29.83,NNE,23,1.0,4.0,88,0.00,,,0.00,Wunderground v.1.15,2013-02-19 14:12:00,
2013-02-19 06:18:00,38.8,35.6,29.83,NNE,23,0.0,4.0,88,0.00,,,0.00,Wunderground v.1.15,2013-02-19 14:18:00,
2013-02-19 06:23:00,38.9,35.6,29.83,NNE,23,0.0,1.0,88,0.00,,,0.00,Wunderground v.1.15,2013-02-19 14:23:00,
2013-02-19 06:28:00,38.9,35.6,29.83,NNE,23,2.0,5.0,88,0.00,,,0.00,Wunderground v.1.15,2013-02-19 14:28:00,
2013-02-19 06:33:00,39.0,35.7,29.83,NNE,23,4.0,4.0,88,0.00,,,0.00,Wunderground v.1.15,2013-02-19 14:33:00,
2013-02-19 06:38:00,39.0,35.7,29.83,NNE,23,0.0,5.0,88,0.00,,,0.00,Wunderground v.1.15,2013-02-19 14:38:00,
2013-02-19 06:43:00,39.1,36.1,29.83,NNE,23,3.0,3.0,89,0.00,,,0.00,Wunderground v.1.15,2013-02-19 14:43:00,
2013-02-19 06:48:00,39.1,36.1,29.84,NNE,23,2.0,3.0,89,0.00,,,0.00,Wunderground v.1.15,2013-02-19 14:48:00,
2013-02-19 06:53:00,39.2,36.2,29.83,NNE,23,0.0,3.0,89,0.00,,,0.00,Wunderground v.1.15,2013-02-19 14:53:00,
2013-02-19 06:58:00,39.2,36.2,29.83,NNE,23,0.0,5.0,89,0.00,,,0.00,Wunderground v.1.15,2013-02-19 14:58:00,
2013-02-19 07:03:00,39.3,36.3,29.83,NNE,23,0.0,2.0,89,0.00,,,0.00,Wunderground v.1.15,2013-02-19 15:03:00,
2013-02-19 07:08:00,39.3,36.3,29.84,NNE,23,0.0,2.0,89,0.00,,,0.00,Wunderground v.1.15,2013-02-19 15:08:00,
2013-02-19 07:13:00,39.3,36.3,29.84,NNE,23,0.0,0.0,89,0.00,,,0.00,Wunderground v.1.15,2013-02-19 15:13:00,
2013-02-19 07:18:00,39.3,36.3,29.84,NNE,23,0.0,3.0,89,0.00,,,0.00,Wunderground v.1.15,2013-02-19 15:18:00,
2013-02-19 07:23:00,39.6,36.6,29.84,NNE,23,0.0,1.0,89,0.00,,,0.00,Wunderground v.1.15,2013-02-19 15:23:00,
2013-02-19 07:28:00,39.8,36.8,29.84,NNE,23,0.0,1.0,89,0.00,,,0.00,Wunderground v.1.15,2013-02-19 15:28:00,
2013-02-19 07:33:00,39.8,36.8,29.85,NNE,23,0.0,0.0,89,0.00,,,0.00,Wunderground v.1.15,2013-02-19 15:33:00,
2013-02-19 07:38:00,39.9,36.6,29.84,NNE,23,0.0,0.0,88,0.00,,,0.00,Wunderground v.1.15,2013-02-19 15:38:00,
2013-02-19 07:43:00,40.1,36.8,29.84,NNE,23,0.0,0.0,88,0.00,,,0.00,Wunderground v.1.15,2013-02-19 15:43:00,
2013-02-19 07:48:00,40.3,36.7,29.85,NNE,23,0.0,2.0,87,0.00,,,0.00,Wunderground v.1.15,2013-02-19 15:48:00,
2013-02-19 07:53:00,40.3,38.2,29.84,NNE,23,0.0,0.0,92,0.00,,,0.00,Wunderground v.1.15,2013-02-19 15:53:00,
2013-02-19 07:58:00,40.2,36.9,29.85,NNE,23,2.0,2.0,88,0.00,,,0.00,Wunderground v.1.15,2013-02-19 15:58:00,
2013-02-19 08:03:00,40.2,36.9,29.85,NNE,23,0.0,4.0,88,0.00,,,0.00,Wunderground v.1.15,2013-02-19 16:03:00,
2013-02-19 08:08:00,40.2,36.6,29.85,NNE,23,2.0,4.0,87,0.00,,,0.00,Wunderground v.1.15,2013-02-19 16:08:00,
2013-02-19 08:13:00,40.7,37.1,29.86,NNE,24,1.0,6.0,87,0.00,,,0.00,Wunderground v.1.15,2013-02-19 16:13:00,
2013-02-19 08:19:00,41.3,35.3,29.86,NNE,21,6.0,7.0,79,0.00,,,0.00,Wunderground v.1.15,2013-02-19 16:19:00,
2013-02-19 08:24:00,41.6,34.3,29.86,NNE,21,6.0,6.0,75,0.00,,,0.00,Wunderground v.1.15,2013-02-19 16:24:00,
2013-02-19 08:29:00,41.8,33.8,29.86,NNE,22,3.0,4.0,73,0.00,,,0.00,Wunderground v.1.15,2013-02-19 16:29:00,
2013-02-19 08:34:00,42.5,34.1,29.86,NNE,26,0.0,5.0,72,0.00,,,0.00,Wunderground v.1.15,2013-02-19 16:34:00,
2013-02-19 08:39:00,43.1,34.7,29.86,NNE,26,0.0,5.0,72,0.00,,,0.00,Wunderground v.1.15,2013-02-19 16:39:00,
2013-02-19 08:44:00,43.1,34.0,29.86,NNE,29,0.0,3.0,70,0.00,,,0.00,Wunderground v.1.15,2013-02-19 16:44:00,
2013-02-19 08:49:00,43.1,33.6,29.86,NNE,32,2.0,9.0,69,0.00,,,0.00,Wunderground v.1.15,2013-02-19 16:49:00,
2013-02-19 08:54:00,42.9,33.4,29.86,NNE,32,1.0,5.0,69,0.00,,,0.00,Wunderground v.1.15,2013-02-19 16:54:00,
2013-02-19 08:59:00,43.0,33.5,29.87,NNE,32,2.0,3.0,69,0.00,,,0.00,Wunderground v.1.15,2013-02-19 16:59:00,
2013-02-19 09:04:00,43.3,34.9,29.87,NNE,32,0.0,3.0,72,0.00,,,0.00,Wunderground v.1.15,2013-02-19 17:04:00,
2013-02-19 09:09:00,43.6,35.2,29.87,NNE,32,2.0,2.0,72,0.00,,,0.00,Wunderground v.1.15,2013-02-19 17:09:00,
2013-02-19 09:14:00,43.7,36.3,29.87,NNE,28,3.0,5.0,75,0.00,,,0.00,Wunderground v.1.15,2013-02-19 17:14:00,
2013-02-19 09:19:00,43.5,36.8,29.87,NNE,28,2.0,2.0,77,0.00,,,0.00,Wunderground v.1.15,2013-02-19 17:19:00,
2013-02-19 09:24:00,43.3,36.6,29.87,NNE,28,2.0,4.0,77,0.00,,,0.00,Wunderground v.1.15,2013-02-19 17:24:00,
2013-02-19 09:29:00,43.1,36.7,29.87,NNE,28,0.0,1.0,78,0.00,,,0.00,Wunderground v.1.15,2013-02-19 17:29:00,
2013-02-19 09:34:00,43.1,37.0,29.87,NNE,28,3.0,4.0,79,0.00,,,0.00,Wunderground v.1.15,2013-02-19 17:34:00,
2013-02-19 09:39:00,43.4,37.3,29.87,NNE,28,2.0,2.0,79,0.00,,,0.00,Wunderground v.1.15,2013-02-19 17:39:00,
2013-02-19 09:44:00,43.8,37.1,29.87,NNE,28,0.0,2.0,77,0.00,,,0.00,Wunderground v.1.15,2013-02-19 17:44:00,
2013-02-19 09:49:00,43.7,36.6,29.88,NNE,28,0.0,0.0,76,0.00,,,0.00,Wunderground v.1.15,2013-02-19 17:49:00,
2013-02-19 09:54:00,43.5,36.1,29.88,NNE,28,5.0,5.0,75,0.00,,,0.00,Wunderground v.1.15,2013-02-19 17:54:00,
2013-02-19 09:59:00,43.4,36.3,29.88,NNE,24,5.0,8.0,76,0.00,,,0.00,Wunderground v.1.15,2013-02-19 17:59:00,
2013-02-19 10:04:00,43.3,36.6,29.87,NNE,22,6.0,9.0,77,0.00,,,0.00,Wunderground v.1.15,2013-02-19 18:04:00,
2013-02-19 10:09:00,43.3,36.6,29.88,NNE,23,4.0,5.0,77,0.00,,,0.00,Wunderground v.1.15,2013-02-19 18:09:00,
2013-02-19 10:14:00,43.4,36.3,29.88,NNE,22,1.0,5.0,76,0.00,,,0.00,Wunderground v.1.15,2013-02-19 18:14:00,
2013-02-19 10:19:00,43.6,36.2,29.88,NNE,22,2.0,2.0,75,0.00,,,0.00,Wunderground v.1.15,2013-02-19 18:19:00,
2013-02-19 10:24:00,43.7,36.0,29.88,NNE,22,3.0,5.0,74,0.00,,,0.00,Wunderground v.1.15,2013-02-19 18:24:00,
2013-02-19 10:29:00,43.9,35.8,29.87,NNE,22,5.0,6.0,73,0.00,,,0.00,Wunderground v.1.15,2013-02-19 18:29:00,
2013-02-19 10:34:00,43.8,34.3,29.88,NNE,19,3.0,9.0,69,0.00,,,0.00,Wunderground v.1.15,2013-02-19 18:34:00,
2013-02-19 10:39:00,44.2,35.0,29.88,NNE,13,5.0,6.0,70,0.00,,,0.00,Wunderground v.1.15,2013-02-19 18:39:00,
2013-02-19 10:44:00,44.3,34.8,29.88,NNE,15,1.0,6.0,69,0.00,,,0.00,Wunderground v.1.15,2013-02-19 18:44:00,
2013-02-19 10:49:00,44.6,35.1,29.88,North,11,3.0,4.0,69,0.00,,,0.00,Wunderground v.1.15,2013-02-19 18:49:00,
2013-02-19 10:54:00,45.0,35.8,29.88,North,11,0.0,5.0,70,0.00,,,0.00,Wunderground v.1.15,2013-02-19 18:54:00,
2013-02-19 10:59:00,45.4,35.5,29.88,North,10,0.0,1.0,68,0.00,,,0.00,Wunderground v.1.15,2013-02-19 18:59:00,
2013-02-19 11:05:00,45.2,34.5,29.88,North,10,0.0,1.0,66,0.00,,,0.00,Wunderground v.1.15,2013-02-19 19:05:00,
2013-02-19 11:10:00,45.0,34.3,29.88,North,10,0.0,0.0,66,0.00,,,0.00,Wunderground v.1.15,2013-02-19 19:10:00,
2013-02-19 11:15:00,46.2,35.5,29.88,North,10,0.0,0.0,66,0.00,,,0.00,Wunderground v.1.15,2013-02-19 19:15:00,
2013-02-19 11:20:00,46.1,35.0,29.88,North,10,0.0,0.0,65,0.00,,,0.00,Wunderground v.1.15,2013-02-19 19:20:00,
2013-02-19 11:25:00,46.6,35.8,29.88,North,10,0.0,0.0,66,0.00,,,0.00,Wunderground v.1.15,2013-02-19 19:25:00,
2013-02-19 11:30:00,47.1,35.5,29.88,North,10,0.0,0.0,64,0.00,,,0.00,Wunderground v.1.15,2013-02-19 19:30:00,
2013-02-19 11:35:00,46.9,35.4,29.88,North,10,0.0,0.0,64,0.00,,,0.00,Wunderground v.1.15,2013-02-19 19:35:00,
2013-02-19 11:40:00,47.2,35.6,29.88,North,10,0.0,0.0,64,0.00,,,0.00,Wunderground v.1.15,2013-02-19 19:40:00,
2013-02-19 11:45:00,47.2,35.6,29.88,North,5,2.0,4.0,64,0.00,,,0.00,Wunderground v.1.15,2013-02-19 19:45:00,
2013-02-19 11:50:00,47.8,36.2,29.88,North,5,0.0,2.0,64,0.00,,,0.00,Wunderground v.1.15,2013-02-19 19:50:00,
2013-02-19 11:55:00,48.4,37.6,29.88,North,355,5.0,5.0,66,0.00,,,0.00,Wunderground v.1.15,2013-02-19 19:55:00,
2013-02-19 12:00:00,48.9,37.3,29.88,NNW,333,2.0,5.0,64,0.00,,,0.00,Wunderground v.1.15,2013-02-19 20:00:00,
2013-02-19 12:05:00,48.5,37.3,29.88,NNW,333,1.0,5.0,65,0.00,,,0.00,Wunderground v.1.15,2013-02-19 20:05:00,
2013-02-19 12:10:00,48.7,37.8,29.88,NNW,334,4.0,4.0,66,0.00,,,0.00,Wunderground v.1.15,2013-02-19 20:10:00,
2013-02-19 12:15:00,48.5,38.0,29.88,North,355,2.0,9.0,67,0.00,,,0.00,Wunderground v.1.15,2013-02-19 20:15:00,
2013-02-19 12:20:00,48.3,37.5,29.88,NNW,342,6.0,9.0,66,0.00,,,0.00,Wunderground v.1.15,2013-02-19 20:20:00,
2013-02-19 12:25:00,48.3,38.6,29.88,NNW,337,5.0,10.0,69,0.00,,,0.00,Wunderground v.1.15,2013-02-19 20:25:00,
2013-02-19 12:30:00,48.5,37.3,29.88,NNW,345,4.0,5.0,65,0.00,,,0.00,Wunderground v.1.15,2013-02-19 20:30:00,
2013-02-19 12:35:00,48.8,37.9,29.88,NNW,341,5.0,6.0,66,0.00,,,0.00,Wunderground v.1.15,2013-02-19 20:35:00,
2013-02-19 12:40:00,49.0,37.3,29.89,NNW,340,1.0,6.0,64,0.00,,,0.00,Wunderground v.1.15,2013-02-19 20:40:00,
2013-02-19 12:45:00,49.0,38.1,29.89,NNW,336,7.0,10.0,66,0.00,,,0.00,Wunderground v.1.15,2013-02-19 20:45:00,
2013-02-19 12:50:00,49.2,37.1,29.89,North,360,10.0,10.0,63,0.00,,,0.00,Wunderground v.1.15,2013-02-19 20:50:00,
2013-02-19 12:55:00,48.9,37.3,29.89,NNE,13,3.0,13.0,64,0.00,,,0.00,Wunderground v.1.15,2013-02-19 20:55:00,
2013-02-19 13:00:00,48.6,37.4,29.89,North,360,7.0,9.0,65,0.00,,,0.00,Wunderground v.1.15,2013-02-19 21:00:00,
2013-02-19 13:05:00,48.7,37.5,29.89,NNE,20,7.0,11.0,65,0.00,,,0.00,Wunderground v.1.15,2013-02-19 21:05:00,
2013-02-19 13:10:00,48.9,37.3,29.89,NNE,20,8.0,8.0,64,0.00,,,0.00,Wunderground v.1.15,2013-02-19 21:10:00,
2013-02-19 13:15:00,49.0,37.3,29.90,North,5,5.0,10.0,64,0.00,,,0.00,Wunderground v.1.15,2013-02-19 21:15:00,
2013-02-19 13:20:00,48.9,38.0,29.90,NE,36,4.0,11.0,66,0.00,,,0.00,Wunderground v.1.15,2013-02-19 21:20:00,
2013-02-19 13:25:00,48.5,37.3,29.90,North,360,3.0,11.0,65,0.00,,,0.00,Wunderground v.1.15,2013-02-19 21:25:00,
2013-02-19 13:30:00,48.4,37.2,29.90,NW,306,4.0,12.0,65,0.00,,,0.00,Wunderground v.1.15,2013-02-19 21:30:00,
2013-02-19 13:35:00,48.6,37.0,29.91,North,350,5.0,12.0,64,0.00,,,0.00,Wunderground v.1.15,2013-02-19 21:35:00,
2013-02-19 13:40:00,48.5,37.7,29.90,NNW,346,5.0,10.0,66,0.00,,,0.00,Wunderground v.1.15,2013-02-19 21:40:00,
2013-02-19 13:45:00,48.5,37.7,29.90,NW,309,10.0,11.0,66,0.00,,,0.00,Wunderground v.1.15,2013-02-19 21:45:00,
2013-02-19 13:50:00,48.7,36.7,29.90,NNW,329,10.0,12.0,63,0.00,,,0.00,Wunderground v.1.15,2013-02-19 21:50:00,
2013-02-19 13:55:00,48.6,37.0,29.90,WNW,299,5.0,12.0,64,0.00,,,0.00,Wunderground v.1.15,2013-02-19 21:55:00,
2013-02-19 14:00:00,48.5,37.3,29.90,NNW,329,10.0,15.0,65,0.00,,,0.00,Wunderground v.1.15,2013-02-19 22:00:00,
2013-02-19 14:05:00,48.1,37.7,29.90,NNE,15,6.0,15.0,67,0.00,,,0.00,Wunderground v.1.15,2013-02-19 22:05:00,
2013-02-19 14:10:00,47.9,37.5,29.90,North,355,11.0,13.0,67,0.00,,,0.00,Wunderground v.1.15,2013-02-19 22:10:00,
2013-02-19 14:15:00,47.9,37.5,29.91,NE,38,5.0,14.0,67,0.00,,,0.00,Wunderground v.1.15,2013-02-19 22:15:00,
2013-02-19 14:21:00,47.9,37.5,29.91,WNW,292,4.0,13.0,67,0.00,,,0.00,Wunderground v.1.15,2013-02-19 22:21:00,
2013-02-19 14:26:00,48.2,37.4,29.91,WNW,292,6.0,13.0,66,0.00,,,0.00,Wunderground v.1.15,2013-02-19 22:26:00,
2013-02-19 14:31:00,48.3,37.1,29.91,NW,315,2.0,12.0,65,0.00,,,0.00,Wunderground v.1.15,2013-02-19 22:31:00,
2013-02-19 14:36:00,48.3,37.1,29.91,North,355,6.0,12.0,65,0.00,,,0.00,Wunderground v.1.15,2013-02-19 22:36:00,
2013-02-19 14:41:00,48.5,37.7,29.91,WNW,285,3.0,10.0,66,0.00,,,0.00,Wunderground v.1.15,2013-02-19 22:41:00,
2013-02-19 14:46:00,48.4,36.8,29.91,West,275,5.0,11.0,64,0.00,,,0.00,Wunderground v.1.15,2013-02-19 22:46:00,
2013-02-19 14:51:00,48.4,36.4,29.92,WNW,282,7.0,11.0,63,0.00,,,0.00,Wunderground v.1.15,2013-02-19 22:51:00,
2013-02-19 14:56:00,48.4,36.4,29.92,NW,317,6.0,11.0,63,0.00,,,0.00,Wunderground v.1.15,2013-02-19 22:56:00,
2013-02-19 15:01:00,48.4,36.0,29.92,NNE,31,7.0,11.0,62,0.00,,,0.00,Wunderground v.1.15,2013-02-19 23:01:00,
2013-02-19 15:06:00,48.3,35.5,29.92,NNW,336,9.0,12.0,61,0.00,,,0.00,Wunderground v.1.15,2013-02-19 23:06:00,
2013-02-19 15:11:00,48.3,37.1,29.92,NNE,14,5.0,11.0,65,0.00,,,0.00,Wunderground v.1.15,2013-02-19 23:11:00,
2013-02-19 15:16:00,48.2,37.0,29.92,North,355,9.0,11.0,65,0.00,,,0.00,Wunderground v.1.15,2013-02-19 23:16:00,
2013-02-19 15:21:00,48.3,37.1,29.92,NW,306,4.0,9.0,65,0.00,,,0.00,Wunderground v.1.15,2013-02-19 23:21:00,
2013-02-19 15:26:00,48.5,37.7,29.92,NNE,26,5.0,9.0,66,0.00,,,0.00,Wunderground v.1.15,2013-02-19 23:26:00,
2013-02-19 15:31:00,48.3,37.1,29.92,NW,315,4.0,12.0,65,0.00,,,0.00,Wunderground v.1.15,2013-02-19 23:31:00,
2013-02-19 15:36:00,48.1,37.3,29.92,NNW,327,6.0,13.0,66,0.00,,,0.00,Wunderground v.1.15,2013-02-19 23:36:00,
2013-02-19 15:41:00,48.0,37.6,29.92,North,5,7.0,12.0,67,0.00,,,0.00,Wunderground v.1.15,2013-02-19 23:41:00,
2013-02-19 15:46:00,47.8,37.4,29.92,NNW,327,6.0,14.0,67,0.00,,,0.00,Wunderground v.1.15,2013-02-19 23:46:00,
2013-02-19 15:51:00,47.7,37.3,29.92,WNW,300,5.0,12.0,67,0.00,,,0.00,Wunderground v.1.15,2013-02-19 23:51:00,
2013-02-19 15:56:00,47.5,37.1,29.92,NNE,23,4.0,12.0,67,0.00,,,0.00,Wunderground v.1.15,2013-02-19 23:56:00,
2013-02-19 16:01:00,47.5,37.1,29.93,North,5,3.0,10.0,67,0.00,,,0.00,Wunderground v.1.15,2013-02-20 00:01:00,
2013-02-19 16:06:00,47.2,36.8,29.93,WNW,298,3.0,12.0,67,0.00,,,0.00,Wunderground v.1.15,2013-02-20 00:06:00,
2013-02-19 16:11:00,47.2,36.8,29.93,NNW,346,10.0,12.0,67,0.00,,,0.00,Wunderground v.1.15,2013-02-20 00:11:00,
2013-02-19 16:16:00,47.0,37.0,29.93,NNW,334,11.0,16.0,68,0.00,,,0.00,Wunderground v.1.15,2013-02-20 00:16:00,
2013-02-19 16:21:00,46.8,36.8,29.93,NNW,348,9.0,15.0,68,0.00,,,0.00,Wunderground v.1.15,2013-02-20 00:21:00,
2013-02-19 16:26:00,46.6,37.0,29.93,NW,323,5.0,15.0,69,0.00,,,0.00,Wunderground v.1.15,2013-02-20 00:26:00,
2013-02-19 16:31:00,46.6,37.0,29.93,NW,315,4.0,11.0,69,0.00,,,0.00,Wunderground v.1.15,2013-02-20 00:31:00,
2013-02-19 16:36:00,46.5,37.6,29.93,North,9,9.0,11.0,71,0.00,,,0.00,Wunderground v.1.15,2013-02-20 00:36:00,
2013-02-19 16:42:00,46.4,37.1,29.94,NNW,342,5.0,11.0,70,0.00,,,0.00,Wunderground v.1.15,2013-02-20 00:42:00,
2013-02-19 16:47:00,46.3,37.4,29.94,NW,323,5.0,12.0,71,0.00,,,0.00,Wunderground v.1.15,2013-02-20 00:47:00,
2013-02-19 16:52:00,46.2,37.3,29.93,North,351,7.0,12.0,71,0.00,,,0.00,Wunderground v.1.15,2013-02-20 00:52:00,
2013-02-19 16:57:00,46.1,36.5,29.93,NW,308,10.0,12.0,69,0.00,,,0.00,Wunderground v.1.15,2013-02-20 00:57:00,
2013-02-19 17:02:00,45.9,35.9,29.93,West,261,9.0,14.0,68,0.00,,,0.00,Wunderground v.1.15,2013-02-20 01:02:00,
2013-02-19 17:07:00,45.8,36.2,29.94,West,281,1.0,14.0,69,0.00,,,0.00,Wunderground v.1.15,2013-02-20 01:07:00,
2013-02-19 17:12:00,45.4,36.2,29.94,WNW,284,5.0,11.0,70,0.00,,,0.00,Wunderground v.1.15,2013-02-20 01:12:00,
2013-02-19 17:17:00,45.2,36.0,29.94,NW,307,5.0,12.0,70,0.00,,,0.00,Wunderground v.1.15,2013-02-20 01:17:00,
2013-02-19 17:22:00,45.0,35.8,29.94,NW,316,3.0,10.0,70,0.00,,,0.00,Wunderground v.1.15,2013-02-20 01:22:00,
2013-02-19 17:27:00,44.8,36.0,29.94,NW,306,4.0,10.0,71,0.00,,,0.00,Wunderground v.1.15,2013-02-20 01:27:00,
2013-02-19 17:32:00,44.6,36.1,29.94,NW,315,4.0,7.0,72,0.00,,,0.00,Wunderground v.1.15,2013-02-20 01:32:00,
2013-02-19 17:37:00,44.4,36.3,29.94,NW,319,6.0,7.0,73,0.00,,,0.00,Wunderground v.1.15,2013-02-20 01:37:00,
2013-02-19 17:42:00,44.3,36.5,29.95,NNW,331,5.0,7.0,74,0.00,,,0.00,Wunderground v.1.15,2013-02-20 01:42:00,
2013-02-19 17:47:00,44.1,36.7,29.95,NW,313,3.0,7.0,75,0.00,,,0.00,Wunderground v.1.15,2013-02-20 01:47:00,
2013-02-19 17:52:00,43.9,36.8,29.95,NW,311,5.0,9.0,76,0.00,,,0.00,Wunderground v.1.15,2013-02-20 01:52:00,
2013-02-19 17:57:00,43.8,36.7,29.95,NNW,331,4.0,9.0,76,0.00,,,0.00,Wunderground v.1.15,2013-02-20 01:57:00,
2013-02-19 18:02:00,43.7,37.3,29.95,NNW,338,6.0,7.0,78,0.00,,,0.00,Wunderground v.1.15,2013-02-20 02:02:00,
2013-02-19 18:07:00,43.6,37.2,29.95,NNW,345,1.0,7.0,78,0.00,,,0.00,Wunderground v.1.15,2013-02-20 02:07:00,
2013-02-19 18:13:00,43.4,37.3,29.96,NNW,332,2.0,5.0,79,0.00,,,0.00,Wunderground v.1.15,2013-02-20 02:13:00,
2013-02-19 18:18:00,43.3,37.2,29.96,NW,314,3.0,5.0,79,0.00,,,0.00,Wunderground v.1.15,2013-02-20 02:18:00,
2013-02-19 18:23:00,43.2,37.4,29.96,NW,324,2.0,5.0,80,0.00,,,0.00,Wunderground v.1.15,2013-02-20 02:23:00,
2013-02-19 18:28:00,43.2,37.4,29.96,NW,322,0.0,5.0,80,0.00,,,0.00,Wunderground v.1.15,2013-02-20 02:28:00,
2013-02-19 18:33:00,43.1,37.3,29.96,NW,326,4.0,4.0,80,0.00,,,0.00,Wunderground v.1.15,2013-02-20 02:33:00,
2013-02-19 18:38:00,43.0,37.3,29.97,NW,326,0.0,5.0,80,0.00,,,0.00,Wunderground v.1.15,2013-02-20 02:38:00,
2013-02-19 18:43:00,42.9,37.5,29.97,NNW,328,0.0,5.0,81,0.00,,,0.00,Wunderground v.1.15,2013-02-20 02:43:00,
2013-02-19 18:48:00,42.8,37.4,29.97,NNW,327,3.0,5.0,81,0.00,,,0.00,Wunderground v.1.15,2013-02-20 02:48:00,
2013-02-19 18:53:00,42.7,37.3,29.97,NNW,327,0.0,1.0,81,0.00,,,0.00,Wunderground v.1.15,2013-02-20 02:53:00,
2013-02-19 18:58:00,42.5,37.4,29.97,NNW,327,0.0,1.0,82,0.00,,,0.00,Wunderground v.1.15,2013-02-20 02:58:00,
2013-02-19 19:03:00,42.4,37.3,29.98,NNW,327,0.0,0.0,82,0.00,,,0.00,Wunderground v.1.15,2013-02-20 03:03:00,
2013-02-19 19:08:00,42.3,37.2,29.98,NW,326,0.0,0.0,82,0.00,,,0.00,Wunderground v.1.15,2013-02-20 03:08:00,
2013-02-19 19:13:00,42.2,37.4,29.98,NNW,327,0.0,0.0,83,0.00,,,0.00,Wunderground v.1.15,2013-02-20 03:13:00,
2013-02-19 19:18:00,42.1,37.3,29.98,NNW,327,0.0,0.0,83,0.00,,,0.00,Wunderground v.1.15,2013-02-20 03:18:00,
2013-02-19 19:23:00,42.0,37.5,29.99,NNW,327,0.0,0.0,84,0.00,,,0.00,Wunderground v.1.15,2013-02-20 03:23:00,
2013-02-19 19:28:00,42.0,37.8,29.99,NNW,327,0.0,0.0,85,0.00,,,0.00,Wunderground v.1.15,2013-02-20 03:28:00,
2013-02-19 19:33:00,41.9,38.0,29.99,NNW,327,0.0,0.0,86,0.00,,,0.00,Wunderground v.1.15,2013-02-20 03:33:00,
2013-02-19 19:38:00,41.7,37.8,29.99,NNW,327,0.0,0.0,86,0.00,,,0.00,Wunderground v.1.15,2013-02-20 03:38:00,
2013-02-19 19:43:00,40.9,36.7,30.00,NNW,327,0.0,0.0,85,0.00,,,0.00,Wunderground v.1.15,2013-02-20 03:43:00,
2013-02-19 19:48:00,40.2,36.1,29.99,NNW,327,0.0,0.0,85,0.00,,,0.00,Wunderground v.1.15,2013-02-20 03:48:00,
2013-02-19 19:54:00,40.1,36.2,30.00,NNW,327,0.0,0.0,86,0.00,,,0.00,Wunderground v.1.15,2013-02-20 03:54:00,
2013-02-19 19:59:00,40.4,36.5,30.00,NNW,327,0.0,0.0,86,0.00,,,0.00,Wunderground v.1.15,2013-02-20 03:59:00,
2013-02-19 20:04:00,40.4,36.2,30.00,NNW,327,0.0,0.0,85,0.00,,,0.00,Wunderground v.1.15,2013-02-20 04:04:00,
2013-02-19 20:09:00,40.2,36.1,30.00,NNW,327,0.0,0.0,85,0.00,,,0.00,Wunderground v.1.15,2013-02-20 04:09:00,
2013-02-19 20:14:00,39.8,35.7,30.00,NNW,327,0.0,0.0,85,0.00,,,0.00,Wunderground v.1.15,2013-02-20 04:14:00,
2013-02-19 20:19:00,39.5,35.7,30.00,NNW,327,0.0,0.0,86,0.00,,,0.00,Wunderground v.1.15,2013-02-20 04:19:00,
2013-02-19 20:24:00,39.4,35.9,30.00,NNW,327,0.0,0.0,87,0.00,,,0.00,Wunderground v.1.15,2013-02-20 04:24:00,
2013-02-19 20:29:00,39.6,35.8,30.00,NNW,327,0.0,0.0,86,0.00,,,0.00,Wunderground v.1.15,2013-02-20 04:29:00,
2013-02-19 20:34:00,39.5,36.0,30.00,NNW,327,0.0,0.0,87,0.00,,,0.00,Wunderground v.1.15,2013-02-20 04:34:00,
2013-02-19 20:39:00,39.0,35.2,30.01,NNW,327,0.0,0.0,86,0.00,,,0.00,Wunderground v.1.15,2013-02-20 04:39:00,
2013-02-19 20:44:00,38.4,34.6,30.01,NNW,327,0.0,0.0,86,0.00,,,0.00,Wunderground v.1.15,2013-02-20 04:44:00,
2013-02-19 20:49:00,38.3,34.8,30.01,NNW,327,0.0,0.0,87,0.00,,,0.00,Wunderground v.1.15,2013-02-20 04:49:00,
2013-02-19 20:54:00,38.6,35.6,30.01,NNW,327,0.0,0.0,89,0.00,,,0.00,Wunderground v.1.15,2013-02-20 04:54:00,
2013-02-19 20:59:00,38.7,35.7,30.02,NNW,327,0.0,0.0,89,0.00,,,0.00,Wunderground v.1.15,2013-02-20 04:59:00,
2013-02-19 21:00:00,38.7,35.7,30.02,NW,326,1.0,1.0,89,0.00,,,0.00,Wunderground v.1.15,2013-02-20 05:00:00,
2013-02-19 21:05:00,38.3,35.1,30.02,NW,321,0.0,4.0,88,0.00,,,0.00,Wunderground v.1.15,2013-02-20 05:05:00,
2013-02-19 21:10:00,38.3,35.3,30.02,NW,321,0.0,1.0,89,0.00,,,0.00,Wunderground v.1.15,2013-02-20 05:10:00,
2013-02-19 21:15:00,38.3,35.3,30.02,NW,321,0.0,1.0,89,0.00,,,0.00,Wunderground v.1.15,2013-02-20 05:15:00,
2013-02-19 21:20:00,38.3,35.3,30.02,NW,321,0.0,0.0,89,0.00,,,0.00,Wunderground v.1.15,2013-02-20 05:20:00,
2013-02-19 21:25:00,38.5,35.5,30.02,NW,321,0.0,0.0,89,0.00,,,0.00,Wunderground v.1.15,2013-02-20 05:25:00,
2013-02-19 21:30:00,38.5,35.5,30.02,NW,321,0.0,0.0,89,0.00,,,0.00,Wunderground v.1.15,2013-02-20 05:30:00,
2013-02-19 21:35:00,38.3,35.3,30.03,NW,321,0.0,0.0,89,0.00,,,0.00,Wunderground v.1.15,2013-02-20 05:35:00,
2013-02-19 21:40:00,38.3,35.6,30.03,NW,321,0.0,0.0,90,0.00,,,0.00,Wunderground v.1.15,2013-02-20 05:40:00,
2013-02-19 21:45:00,38.4,35.7,30.03,NW,321,0.0,0.0,90,0.00,,,0.00,Wunderground v.1.15,2013-02-20 05:45:00,
2013-02-19 21:50:00,38.4,35.7,30.04,NW,321,0.0,0.0,90,0.00,,,0.00,Wunderground v.1.15,2013-02-20 05:50:00,
2013-02-19 21:55:00,38.4,35.7,30.04,NW,321,0.0,0.0,90,0.00,,,0.00,Wunderground v.1.15,2013-02-20 05:55:00,
2013-02-19 22:00:00,38.3,35.6,30.04,NW,321,0.0,0.0,90,0.00,,,0.00,Wunderground v.1.15,2013-02-20 06:00:00,
2013-02-19 22:05:00,38.2,35.8,30.04,NW,321,0.0,0.0,91,0.00,,,0.00,Wunderground v.1.15,2013-02-20 06:05:00,
2013-02-19 22:10:00,38.2,35.8,30.04,NW,321,0.0,0.0,91,0.00,,,0.00,Wunderground v.1.15,2013-02-20 06:10:00,
2013-02-19 22:15:00,38.1,35.7,30.04,NW,321,0.0,0.0,91,0.00,,,0.00,Wunderground v.1.15,2013-02-20 06:15:00,
2013-02-19 22:20:00,37.7,35.3,30.05,NW,321,0.0,0.0,91,0.00,,,0.00,Wunderground v.1.15,2013-02-20 06:20:00,
2013-02-19 22:25:00,37.1,34.4,30.05,NW,321,0.0,0.0,90,0.00,,,0.00,Wunderground v.1.15,2013-02-20 06:25:00,
2013-02-19 22:30:00,36.7,34.3,30.05,NW,321,0.0,0.0,91,0.00,,,0.00,Wunderground v.1.15,2013-02-20 06:30:00,
2013-02-19 22:35:00,36.4,34.0,30.05,NW,321,0.0,0.0,91,0.00,,,0.00,Wunderground v.1.15,2013-02-20 06:35:00,
2013-02-19 22:40:00,36.4,34.0,30.06,NW,321,0.0,0.0,91,0.00,,,0.00,Wunderground v.1.15,2013-02-20 06:40:00,
2013-02-19 22:45:00,36.5,34.4,30.06,NW,321,0.0,0.0,92,0.00,,,0.00,Wunderground v.1.15,2013-02-20 06:45:00,
2013-02-19 22:50:00,36.5,34.4,30.06,NW,321,0.0,0.0,92,0.00,,,0.00,Wunderground v.1.15,2013-02-20 06:50:00,
2013-02-19 22:55:00,36.9,34.8,30.06,NW,321,0.0,0.0,92,0.00,,,0.00,Wunderground v.1.15,2013-02-20 06:55:00,
2013-02-19 23:00:00,36.6,34.5,30.06,NW,321,0.0,0.0,92,0.00,,,0.00,Wunderground v.1.15,2013-02-20 07:00:00,
2013-02-19 23:06:00,36.7,34.6,30.06,NW,321,0.0,0.0,92,0.00,,,0.00,Wunderground v.1.15,2013-02-20 07:06:00,
2013-02-19 23:10:00,36.8,34.7,30.07,NW,321,0.0,0.0,92,0.00,,,0.00,Wunderground v.1.15,2013-02-20 07:10:00,
2013-02-19 23:16:00,36.6,34.5,30.07,NW,321,0.0,0.0,92,0.00,,,0.00,Wunderground v.1.15,2013-02-20 07:16:00,
2013-02-19 23:21:00,36.7,34.6,30.07,NW,321,0.0,0.0,92,0.00,,,0.00,Wunderground v.1.15,2013-02-20 07:21:00,
2013-02-19 23:26:00,36.8,34.7,30.07,NW,321,0.0,0.0,92,0.00,,,0.00,Wunderground v.1.15,2013-02-20 07:26:00,
2013-02-19 23:31:00,36.9,34.8,30.07,NW,321,0.0,0.0,92,0.00,,,0.00,Wunderground v.1.15,2013-02-20 07:31:00,
2013-02-19 23:36:00,36.8,34.7,30.07,NW,321,0.0,0.0,92,0.00,,,0.00,Wunderground v.1.15,2013-02-20 07:36:00,
2013-02-19 23:41:00,36.9,34.8,30.08,NW,321,0.0,0.0,92,0.00,,,0.00,Wunderground v.1.15,2013-02-20 07:41:00,
2013-02-19 23:46:00,36.9,34.8,30.08,NW,321,0.0,2.0,92,0.00,,,0.00,Wunderground v.1.15,2013-02-20 07:46:00,
2013-02-19 23:51:00,36.9,34.8,30.08,NW,321,0.0,0.0,92,0.00,,,0.00,Wunderground v.1.15,2013-02-20 07:51:00,
2013-02-19 23:56:00,36.9,34.8,30.08,NW,321,0.0,2.0,92,0.00,,,0.00,Wunderground v.1.15,2013-02-20 07:56:00,